Regional Weather Roundup
Issued by NWS Portland, ME

Current Version | Previous Version | Text Only | Print | Product List | Glossary Off
Versions: 1 2 3 4 5 6 7 8 9 10 11 12 13 14 15 16 17 18 19 20 21 22 23 24 25 26 27 28 29 30 31 32 33 34 35 36 37 38 39 40 41 42 43 44 45 46 47 48 49 50
000 ASUS41 KGYX 170505 RWRGYX WEATHER ROUNDUP FOR MAINE AND NEW HAMPSHIRE NATIONAL WEATHER SERVICE GRAY ME 1200 AM EST FRI NOV 17 2017 MEZ002-005-006-010-012-015-018-020-021-024-026-027-029-170600- MAINE CITY SKY/WX TMP DP RH WIND PRES REMARKS PORTLAND CLOUDY 39 38 96 W7 29.64S SANFORD PTCLDY 32 32 100 CALM 29.64S BAR HARBOR LGT RAIN 38 37 97 VRB7 29.55F WISCASSET CLOUDY 38 37 97 NW5 29.63F ROCKLAND LGT RAIN 38 37 97 W8 29.58F FRYEBURG FOG 31 31 100 CALM 29.63S VSB 1/2 LEWISTONAUBURN CLOUDY 37 36 96 CALM 29.62F FOG AUGUSTA CLOUDY 36 35 96 W6 29.61F FOG WATERVILLE CLOUDY 35 34 96 NW6 29.57F BANGOR LGT RAIN 36 35 96 W6 29.58F FOG GREENVILLE NOT AVBL MILLINOCKET LGT RAIN 34 34 100 NW6 29.58F HOULTON LGT RAIN 37 37 100 N5 29.52F FOG PRESQUE ISLE FLURRIES 35 34 96 N10 29.59F FRENCHVILLE MIX PCPN 32 31 96 NE6 29.61F CARIBOU RAIN 36 34 92 N12 29.58F $$ NHZ002-005-008-009-011-012-014-170600- NEW HAMPSHIRE CITY SKY/WX TMP DP RH WIND PRES REMARKS PORTSMOUTH PTCLDY 39 38 95 W9 29.64F ROCHESTER CLEAR 38 37 97 VRB5 29.64F NASHUA CLEAR 40 36 86 W7 29.69S MANCHESTER CLOUDY 39 37 92 CALM 29.67S CONCORD PTCLDY 36 34 92 CALM 29.68R LACONIA CLOUDY 38 37 97 W5 29.66S PLYMOUTH LGT RAIN 36 36 100 W16G23 29.67R BERLIN CLOUDY 33 33 100 CALM 29.63S FOG WHITEFIELD LGT RAIN 38 36 92 VRB6 29.65S JAFFREY CLEAR 39 35 86 VRB7 29.70S KEENE CLOUDY 36 35 96 E5 29.73R LEBANON CLOUDY 40 34 79 CALM 29.71R MT WASHINGTON SNOWSHWR 21 21 100 W38 N/A VSB 0 WCI 1 $$ VTZ005-007-008-170600- VERMONT CITY SKY/WX TMP DP RH WIND PRES REMARKS MONTPELIER CLOUDY 35 33 92 W7 29.74R BURLINGTON LGT SNOW 38 28 67 NW20G28 29.78R $$ MAZ007-012-024-CTZ003-RIZ002-NYZ038-NYZ072-170600- SOUTHERN NEW ENGLAND AND NY CITY SKY/WX TMP DP RH WIND PRES REMARKS BOSTON PTCLDY 43 36 76 W14G23 29.69S WORCESTER PTCLDY 37 32 82 W22G33 29.68F NANTUCKET CLEAR 45 40 82 W20G25 29.72R PROVIDENCE CLEAR 42 37 82 W10 29.74S HARTFORD PTCLDY 42 32 67 NW21G26 29.79S ALBANY CLOUDY 40 32 73 NW13G22 29.86R NEW YORK CITY PTCLDY 45 35 68 W12 29.90R $$ ANZ081-ANZ082-ANZ150-NHZ014-MEZ023>029-170600- COASTAL MARINE OBSERVATIONS STATION/POSITION TIME TEMP WIND PRES WAVE AIR SEA DIR/SP/G HT/PER (UTC) (F) (DEG/KT/KT) (MB) (FT/S) MOUNT DESERT ROC 0500 42 290/ 23/ 25 999.9R MATINICUS ROCK 0400 42 320/ 18/ 19 1001.3F ISLE OF SHOALS 0400 43 280/ 10/ 11 1004.1F JEFFREYS LEDGE 0436 52 N/A 5/11 GEORGES BANK BUO 0350 55 55 1003.0 8/ 6 $$ .............KEY.............. WCI - WIND CHILL TC - TEMPERATURE IN CELSIUS VSB - VISIBILITY IN MILES HX - HEAT INDEX FAIR- INDICATES FEW OR NO CLOUDS BELOW 12,000 FT, WITH NO SIGNIFICANT WEATHER AND/OR OBSTRUCTIONS TO VISIBILITY.

USA.gov is the U.S. government's official web portal to all federal, state and local government web resources and services.